Location: State Camp
(41.2367°N, 77.7828°W)
Time: 18:59:38
(UTC-04:00)

Amateur Radio Satellites - All Passes

Search period start: 24 July 2014 18:29
Search period end: 25 July 2014 18:29
Location: State Camp, 41.2367°N, 77.7828°W

Satellite Date Start Highest point End Downlink Frequencies (MHz)
Time Altitude Azimuth
Hamsat 24 Jul 18:41:40 18:45:47 59° 260° (W) 18:49:56 145.90 MHz
Saudisat 1A 24 Jul 18:50:05 18:54:10 38° 244° (WSW) 18:58:13 436.775 MHz
AO-7 24 Jul 18:55:50 18:59:07 13° 273° (W) 19:02:25 29.400 - 29.500 MHz
STRAND 1 24 Jul 19:04:58 19:08:55 22° 94° (E) 19:12:50 ?
HO-68 24 Jul 19:17:41 19:20:31 13° 50° (NE) 19:23:21 435.675 MHz FM
SO-67 24 Jul 19:19:23 19:22:45 51° 75° (ENE) 19:26:09 435.3500 MHz FM
JAS-2 24 Jul 20:01:43 20:08:13 28° 267° (W) 20:14:33 435.800 - 435.900 CW/SSB, 435.910 FM
RS-15 24 Jul 20:34:46 20:42:54 23° 16° (NNE) 20:51:06 29.354 - 29.394 USB, Beacon 29.352 USB
UKube-1 24 Jul 20:35:54 20:38:57 19° 65° (ENE) 20:42:00 145.840 MHz, 145.915 MHz
STRAND 1 24 Jul 20:43:27 20:48:17 43° 290° (WNW) 20:53:04 ?
HO-68 24 Jul 20:59:47 21:06:51 64° 69° (ENE) 21:13:55 435.675 MHz FM
Oscar 11 24 Jul 21:25:34 21:29:16 29° 69° (ENE) 21:32:58 145.825 FM, Beacon 2401.500 USB
FUNcube-1 24 Jul 21:35:19 21:37:36 14° 64° (ENE) 21:39:51 145.950 - 145.970 MHz USB
MaSat-1 24 Jul 21:59:43 22:02:44 22° 103° (ESE) 22:06:07 437.345 MHz
UKube-1 24 Jul 22:10:43 22:14:51 41° 261° (W) 22:19:00 145.840 MHz, 145.915 MHz
SO-50 24 Jul 22:30:55 22:35:30 46° 52° (NE) 22:40:08 436.795 FM
RS-15 24 Jul 22:47:53 22:58:36 53° 47° (NE) 23:09:38 29.354 - 29.394 USB, Beacon 29.352 USB
HO-68 24 Jul 22:49:24 22:55:00 24° 267° (W) 23:00:38 435.675 MHz FM
Oscar 11 24 Jul 23:01:54 23:05:25 24° 265° (W) 23:08:58 145.825 FM, Beacon 2401.500 USB
FUNcube-1 24 Jul 23:09:15 23:13:34 55° 260° (W) 23:17:48 145.950 - 145.970 MHz USB
UOSAT-12 24 Jul 23:18:53 23:21:42 15° 38° (NE) 23:24:30 437.025 FM, 437.400 FM
Lituanica SAT-1 24 Jul 23:33:05 23:34:32 16° 135° (SE) 23:35:59 437.275 MHz beacon
MaSat-1 24 Jul 23:36:06 23:39:47 34° 305° (NW) 23:44:02 437.345 MHz
SO-50 25 Jul 00:12:09 00:15:47 22° 249° (WSW) 00:19:27 436.795 FM
ISS 25 Jul 00:33:46 00:35:38 14° 130° (SE) 00:37:30 145.800 FM
UOSAT-12 25 Jul 00:57:47 01:02:33 90° 54° (NE) 01:07:13 437.025 FM, 437.400 FM
RS-15 25 Jul 01:00:31 01:10:53 49° 249° (WSW) 01:21:39 29.354 - 29.394 USB, Beacon 29.352 USB
Sapphire 25 Jul 01:04:53 01:08:25 18° 105° (ESE) 01:11:58 437.095 MHz 1200 baud AX-25 AFSK
Lituanica SAT-1 25 Jul 01:05:18 01:07:05 24° 332° (NNW) 01:08:53 437.275 MHz beacon
AO-40 25 Jul 01:32:44 04:35:47 24° 129° (SE) 05:56:19 Beacon 2401.320
PCSat 25 Jul 01:37:04 01:42:00 38° 111° (ESE) 01:46:58 145.825 MHz
Oscar 19 25 Jul 01:39:11 01:42:20 16° 91° (E) 01:45:28 437.125 CW, 437.150 USB
Oscar 16 25 Jul 02:05:41 02:10:12 30° 96° (E) 02:14:43 437.025 USB, Beacon 2401.1428
ISS 25 Jul 02:08:39 02:11:58 67° 326° (NNW) 02:15:20 145.800 FM
JAS-1B 25 Jul 02:12:13 02:17:46 17° 82° (E) 02:22:55 435.800 - 435.900 CW/SSB
ITAMSAT 1 25 Jul 02:17:59 02:21:19 17° 92° (E) 02:24:38 435.822 SSB
AO-Echo 25 Jul 02:30:47 02:34:52 24° 93° (E) 02:38:49 ?
AO-27 25 Jul 02:35:15 02:39:32 26° 95° (E) 02:43:47 436.795 MHz FM
Uribyol 2 25 Jul 02:37:47 02:42:12 28° 96° (E) 02:46:35 436.500 FM
Sapphire 25 Jul 02:45:56 02:51:17 63° 302° (WNW) 02:56:41 437.095 MHz 1200 baud AX-25 AFSK
Oscar 19 25 Jul 03:16:59 03:22:04 61° 287° (WNW) 03:27:09 437.125 CW, 437.150 USB
PCSat 25 Jul 03:20:36 03:25:27 33° 309° (NW) 03:30:20 145.825 MHz
Oscar 16 25 Jul 03:44:58 03:49:32 33° 292° (WNW) 03:54:05 437.025 USB, Beacon 2401.1428
ISS 25 Jul 03:46:46 03:49:11 18° 345° (NNW) 03:51:37 145.800 FM
TMSAT-1 25 Jul 03:49:56 03:54:52 38° 98° (E) 03:59:45 436.925 FM
ITAMSAT 1 25 Jul 03:56:06 04:01:11 57° 288° (WNW) 04:06:14 435.822 SSB
JAS-1B 25 Jul 04:00:10 04:09:53 80° 103° (ESE) 04:18:14 435.800 - 435.900 CW/SSB
OPAL 25 Jul 04:04:23 04:09:18 71° 72° (ENE) 04:14:14 ?
AO-Echo 25 Jul 04:08:59 04:13:46 40° 291° (WNW) 04:18:24 ?
Gurwin Techsat 1B 25 Jul 04:11:09 04:16:29 83° 104° (ESE) 04:21:48 435.225 FM
AO-27 25 Jul 04:14:21 04:19:08 39° 291° (WNW) 04:23:54 436.795 MHz FM
Uribyol 2 25 Jul 04:17:03 04:21:42 35° 292° (WNW) 04:26:20 436.500 FM
Uosat F 25 Jul 04:24:18 04:27:36 17° 92° (E) 04:30:54 435.120 FM
Sapphire 25 Jul 04:33:36 04:35:50 12° 323° (NW) 04:38:05 437.095 MHz 1200 baud AX-25 AFSK
AO-7 25 Jul 04:58:32 05:06:15 40° 99° (E) 05:13:53 29.400 - 29.500 MHz
ISS 25 Jul 05:24:57 05:26:54 15° 6° (N) 05:28:52 145.800 FM
TMSAT-1 25 Jul 05:30:11 05:34:36 27° 294° (WNW) 05:38:59 436.925 FM
Lituanica SAT-1 25 Jul 05:45:16 05:47:06 25° 29° (NNE) 05:48:55 437.275 MHz beacon
OPAL 25 Jul 05:46:28 05:48:40 13° 268° (W) 05:50:52 ?
JAS-1B 25 Jul 05:51:37 05:59:13 28° 305° (NW) 06:06:11 435.800 - 435.900 CW/SSB
Gurwin Techsat 1B 25 Jul 05:53:09 05:55:44 14° 301° (WNW) 05:58:18 435.225 FM
Uosat F 25 Jul 06:01:49 06:06:43 54° 289° (WNW) 06:11:34 435.120 FM
MaSat-1 25 Jul 06:18:53 06:20:33 11° 42° (NE) 06:22:13 437.345 MHz
KITSAT 1 25 Jul 06:18:56 06:25:17 26° 105° (ESE) 06:31:37 435.175 FM
STRAND 1 25 Jul 06:20:43 06:25:17 33° 68° (ENE) 06:29:52 ?
Hamsat 25 Jul 06:27:49 06:31:18 24° 95° (E) 06:34:46 145.90 MHz
AO-7 25 Jul 06:51:15 06:59:06 48° 297° (WNW) 07:06:54 29.400 - 29.500 MHz
Oscar 10/S400 25 Jul 06:57:21 08:13:34 29° 248° (WSW) 11:35:49 145.825 - 145.975 CW/USB, Beacon 145.810 USB
ISS 25 Jul 07:01:22 07:04:25 31° 25° (NNE) 07:07:28 145.800 FM
JAS-2 25 Jul 07:11:18 07:17:17 50° 98° (E) 07:22:36 435.800 - 435.900 CW/SSB, 435.910 FM
Lituanica SAT-1 25 Jul 07:18:15 07:19:35 15° 225° (SW) 07:20:55 437.275 MHz beacon
MaSat-1 25 Jul 07:53:44 07:59:02 60° 61° (ENE) 08:04:06 437.345 MHz
STRAND 1 25 Jul 07:59:58 08:04:27 30° 264° (W) 08:08:57 ?
Hamsat 25 Jul 08:03:32 08:07:15 30° 290° (WNW) 08:10:59 145.90 MHz
KITSAT 1 25 Jul 08:11:53 08:19:58 70° 304° (WNW) 08:28:05 435.175 FM
SO-67 25 Jul 08:16:12 08:19:40 64° 100° (E) 08:23:06 435.3500 MHz FM
ISS 25 Jul 08:38:02 08:41:11 37° 223° (SW) 08:44:18 145.800 FM
AO-7 25 Jul 08:48:06 08:49:48 11° 319° (NW) 08:51:31 29.400 - 29.500 MHz
Saudisat 1A 25 Jul 08:56:04 09:00:23 54° 118° (ESE) 09:04:43 436.775 MHz
JAS-2 25 Jul 08:57:04 09:01:55 25° 299° (WNW) 09:06:23 435.800 - 435.900 CW/SSB, 435.910 FM
PANSAT 25 Jul 09:11:10 09:12:45 12° 182° (S) 09:14:20 not established
MaSat-1 25 Jul 09:32:19 09:35:53 19° 259° (W) 09:39:21 437.345 MHz
Sapphire 25 Jul 09:51:33 09:55:16 18° 43° (NE) 09:58:59 437.095 MHz 1200 baud AX-25 AFSK
UKube-1 25 Jul 09:59:04 10:02:59 32° 97° (E) 10:06:52 145.840 MHz, 145.915 MHz
KITSAT 1 25 Jul 10:11:08 10:16:57 21° 327° (NNW) 10:22:47 435.175 FM
HO-68 25 Jul 10:14:55 10:22:03 66° 103° (ESE) 10:29:07 435.675 MHz FM
PCSat 25 Jul 10:24:47 10:29:39 32° 51° (NE) 10:34:29 145.825 MHz
Saudisat 1A 25 Jul 10:37:00 10:40:17 20° 317° (NW) 10:43:34 436.775 MHz
Oscar 11 25 Jul 10:48:33 10:52:50 58° 101° (E) 10:57:06 145.825 FM, Beacon 2401.500 USB
FUNcube-1 25 Jul 10:58:48 11:02:19 26° 96° (E) 11:05:50 145.950 - 145.970 MHz USB
Sapphire 25 Jul 11:33:55 11:39:21 80° 243° (WSW) 11:44:46 437.095 MHz 1200 baud AX-25 AFSK
UKube-1 25 Jul 11:35:34 11:39:02 23° 293° (WNW) 11:42:28 145.840 MHz, 145.915 MHz
HO-68 25 Jul 12:03:35 12:09:10 26° 302° (WNW) 12:14:45 435.675 MHz FM
PCSat 25 Jul 12:08:07 12:13:06 38° 249° (WSW) 12:18:04 145.825 MHz
KITSAT 1 25 Jul 12:14:40 12:16:17 11° 358° (N) 12:17:55 435.175 FM
Oscar 11 25 Jul 12:26:24 12:28:32 14° 297° (WNW) 12:30:41 145.825 FM, Beacon 2401.500 USB
FUNcube-1 25 Jul 12:35:14 12:38:39 25° 291° (WNW) 12:42:05 145.950 - 145.970 MHz USB
SO-50 25 Jul 12:48:24 12:50:35 14° 108° (ESE) 12:52:48 436.795 FM
Oscar 19 25 Jul 12:55:56 12:59:58 24° 65° (ENE) 13:04:01 437.125 CW, 437.150 USB
JAS-1B 25 Jul 12:56:39 13:02:14 18° 48° (NE) 13:08:06 435.800 - 435.900 CW/SSB
RS-15 25 Jul 13:13:30 13:22:29 29° 104° (ESE) 13:31:16 29.354 - 29.394 USB, Beacon 29.352 USB
Oscar 16 25 Jul 13:22:37 13:27:27 44° 70° (ENE) 13:32:18 437.025 USB, Beacon 2401.1428
ITAMSAT 1 25 Jul 13:35:42 13:40:02 27° 66° (ENE) 13:44:23 435.822 SSB
AO-Echo 25 Jul 13:43:09 13:47:49 33° 67° (ENE) 13:52:30 ?
AO-27 25 Jul 13:53:13 13:58:03 40° 69° (ENE) 14:02:54 436.795 MHz FM
Gurwin Techsat 1B 25 Jul 13:54:48 13:58:12 18° 61° (ENE) 14:01:37 435.225 FM
Uribyol 2 25 Jul 13:55:31 14:00:25 43° 70° (ENE) 14:05:19 436.500 FM
KITSAT 1 25 Jul 14:10:35 14:15:51 18° 29° (NNE) 14:21:06 435.175 FM
AO-7 25 Jul 14:11:07 14:14:19 13° 43° (NE) 14:17:31 29.400 - 29.500 MHz
SO-50 25 Jul 14:26:08 14:30:34 64° 305° (NW) 14:35:07 436.795 FM
Oscar 19 25 Jul 14:34:15 14:39:03 41° 262° (W) 14:43:54 437.125 CW, 437.150 USB
JAS-1B 25 Jul 14:42:15 14:50:47 68° 70° (ENE) 15:00:27 435.800 - 435.900 CW/SSB
Oscar 16 25 Jul 15:03:04 15:06:59 22° 266° (W) 15:10:55 437.025 USB, Beacon 2401.1428
UOSAT-12 25 Jul 15:09:33 15:13:24 27° 113° (ESE) 15:17:19 437.025 FM, 437.400 FM
TMSAT-1 25 Jul 15:10:35 15:15:47 60° 72° (ENE) 15:21:01 436.925 FM
ITAMSAT 1 25 Jul 15:14:31 15:19:21 38° 262° (W) 15:24:12 435.822 SSB
AO-Echo 25 Jul 15:21:47 15:26:30 33° 264° (W) 15:31:16 ?
RS-15 25 Jul 15:22:37 15:33:46 75° 305° (NW) 15:44:44 29.354 - 29.394 USB, Beacon 29.352 USB
Gurwin Techsat 1B 25 Jul 15:32:22 15:37:38 64° 259° (WSW) 15:42:56 435.225 FM
AO-27 25 Jul 15:33:23 15:37:40 25° 265° (W) 15:41:58 436.795 MHz FM
Uribyol 2 25 Jul 15:35:58 15:40:03 23° 266° (W) 15:44:09 436.500 FM
Uosat F 25 Jul 15:37:23 15:41:28 26° 65° (ENE) 15:45:34 435.120 FM
AO-7 25 Jul 15:57:12 16:05:15 55° 65° (ENE) 16:13:19 29.400 - 29.500 MHz
KITSAT 1 25 Jul 16:05:12 16:13:11 58° 54° (NE) 16:21:06 435.175 FM
SO-50 25 Jul 16:10:36 16:12:04 11° 326° (NW) 16:13:34 436.795 FM
OPAL 25 Jul 16:15:12 16:18:38 18° 95° (E) 16:22:04 ?
JAS-1B 25 Jul 16:34:36 16:41:56 30° 271° (W) 16:50:06 435.800 - 435.900 CW/SSB
UOSAT-12 25 Jul 16:49:07 16:53:23 37° 311° (NW) 16:57:46 437.025 FM, 437.400 FM
TMSAT-1 25 Jul 16:52:43 16:56:06 17° 269° (W) 16:59:30 436.925 FM
Uosat F 25 Jul 17:15:22 17:20:03 38° 262° (W) 17:24:46 435.120 FM
JAS-2 25 Jul 17:22:04 17:28:28 29° 63° (ENE) 17:34:35 435.800 - 435.900 CW/SSB, 435.910 FM
Hamsat 25 Jul 17:22:05 17:24:51 18° 66° (ENE) 17:27:38 145.90 MHz
Saudisat 1A 25 Jul 17:22:53 17:27:07 43° 52° (NE) 17:31:18 436.775 MHz
RS-15 25 Jul 17:39:19 17:48:17 28° 333° (NNW) 17:57:17 29.354 - 29.394 USB, Beacon 29.352 USB
AO-7 25 Jul 17:50:53 17:58:16 35° 263° (W) 18:05:44 29.400 - 29.500 MHz
OPAL 25 Jul 17:52:53 17:57:48 54° 290° (WNW) 18:02:46 ?
KITSAT 1 25 Jul 18:01:13 18:08:08 33° 253° (WSW) 18:15:02 435.175 FM
